Вернуться в каталог

USA 498

АктивенВоенныеLEO
NORAD 63350·PAYLOAD·🇺🇸 United States

Запущен Mar 24, 2025 с Cape Canaveral Space Force Station

Loading…

Ближайшие Пролёты (ближайшие 24 часа)

TLE

УстаревшееSource: Mike McCants

Эпоха: Aug 11, 2026, 21:20 UTC

1 63350U 25060A   26223.88940501 0.00000000  00000-0  00000-0 0    03
2 63350  63.4342 149.9187 0089000 177.0783 182.9217 13.41001349    06

Отслеживайте USA 498 в реальном времени с AllMySat

Download on the App Store